Location: ????????
(54.9045°N, 39.1041°E)
Time: 03:21:20
(UTC+00:00)

Lacrosse 5 - Pass Details

Date: 14 April 2024
Orbit: 714 x 724 km, 57.0° (Epoch: 09 March)

Event Time Altitude Azimuth Distance (km) Brightness Sun altitude
Exits shadow 00:05:37 31° 231° (SW) 1,260 2.5 -17.2°
Maximum altitude 00:08:04 73° 154° (SSE) 761 1.9 -17.0°
Drops below altitude 10° 00:13:10 10° 70° (ENE) 2,222 5.4 -16.5°
Sets 00:15:34 0° 68° (ENE) 3,145 6.4 -16.3°
